Location: Albany
(35.0170°S, 117.8920°E)
Time: 02:02:35
(UTC+08:00)

Explorer 7 - Pass Details

Date: 23 January 2021
Orbit: 484 x 677 km, 50.3° (Epoch: 01 March)

Event Time Altitude Azimuth Distance (km) Brightness Sun altitude
Rises 18:01:48 0° 268° (W) 3,022 12.3 14.6°
Reaches altitude 10° 18:04:44 10° 251° (WSW) 2,092 12.8 14.0°
Maximum altitude 18:08:21 21° 203° (SSW) 1,484 9.7 13.3°
Drops below altitude 10° 18:11:53 10° 154° (SSE) 2,027 9.6 12.6°
Sets 18:14:40 0° 137° (SE) 2,899 10.2 12.1°
